Pasco, WA

10:16 PM PDT on October 23, 2017 (GMT -0700)
Tri-Cities

Weather History for KPSC - May, 2014

Change the Weather History Date:

Wednesday, May 28, 2014

  Actual Average Record
Temperature  
Mean Temperature 62 °F 64 °F  
Max Temperature 73 °F 78 °F 96 °F (1972)
Min Temperature 50 °F 50 °F 37 °F (1998)
Degree Days  
Heating Degree Days 3 3  
Month to date heating degree days 89 157  
Since 1 July heating degree days 5202 4981  
Cooling Degree Days 0 2  
Month to date cooling degree days 28 26  
Year to date cooling degree days 28 27  
Growing Degree Days 12 (Base 50)    
Moisture  
Dew Point 38 °F    
Average Humidity 45    
Maximum Humidity 66    
Minimum Humidity 24    
Precipitation  
Precipitation T in 0.04 in 0.31 in (2010)
Month to date precipitation 0.29 0.64  
Year to date precipitation 2.38 4.16  
Snow  
Snow 0.00 in - - ()
Snow Depth 0.00 in    
Sea Level Pressure  
Sea Level Pressure 30.02 in    
Wind  
Wind Speed 8 mph (SW)    
Max Wind Speed 28 mph    
Max Gust Speed 32 mph    
Visibility 10 miles    
Events      
T = Trace of Precipitation, MM = Missing Value Source: NWS Daily Summary

Daily Weather History Graph

Daily Weather History Graph

Search for Another Location

Airport or City:

Trip Planner

Search our weather history database for the weather conditions in past years. The results will help you decide how hot, cold, wet, or windy it might be!

Date:

Astronomy

May. 28, 2014 Rise Set
Actual Time 5:10 AM PDT 8:37 PM PDT
Civil Twilight 4:33 AM PDT 9:14 PM PDT
Nautical Twilight 3:44 AM PDT 10:03 PM PDT
Astronomical Twilight 2:41 AM PDT 11:07 PM PDT
Moon 5:24 AM PDT (5/28) 8:36 PM PDT (5/28)
Length of Visible Light 16h 40m
Length of Day
15h 26m
New Moon, 0% of the Moon is Illuminated
May 28
New Moon
Jun 5
First Quarter
Jun 12
Full
Jun 19
Last Quarter
Jun 27
New

Hourly Weather History & Observations

Time (PDT) Temp. Dew Point Humidity Pressure Visibility Wind Dir Wind Speed Gust Speed Precip Events Conditions
12:53 AM 55.9 °F 39.0 °F 53% 29.98 in 10.0 mi Calm Calm - N/A   Clear
1:53 AM 51.1 °F 39.0 °F 63% 29.99 in 10.0 mi Calm Calm - N/A   Clear
2:53 AM 55.0 °F 36.0 °F 49% 30.00 in 10.0 mi South 4.6 mph - N/A   Clear
3:53 AM 53.1 °F 39.0 °F 59% 30.00 in 10.0 mi SW 8.1 mph - N/A   Clear
4:53 AM 54.0 °F 41.0 °F 62% 30.01 in 10.0 mi SSW 9.2 mph - N/A   Mostly Cloudy
6:53 AM 55.9 °F 41.0 °F 57% 30.02 in 10.0 mi SSW 10.4 mph - N/A   Scattered Clouds
7:53 AM 59.0 °F 39.0 °F 48% 30.02 in 10.0 mi WSW 9.2 mph - N/A   Clear
8:53 AM 61.0 °F 39.0 °F 44% 30.02 in 10.0 mi WSW 11.5 mph - N/A   Clear
9:53 AM 64.9 °F 37.0 °F 36% 30.01 in 10.0 mi SW 12.7 mph - N/A   Clear
11:53 AM 70.0 °F 37.0 °F 30% 30.00 in 10.0 mi SSW 13.8 mph 20.7 mph N/A   Scattered Clouds
12:53 PM 70.0 °F 37.0 °F 30% 29.99 in 10.0 mi SSW 9.2 mph 19.6 mph N/A   Scattered Clouds
1:53 PM 72.0 °F 36.0 °F 27% 29.99 in 10.0 mi SW 18.4 mph 28.8 mph N/A   Mostly Cloudy
4:53 PM 71.1 °F 33.1 °F 25% 30.00 in 10.0 mi SSW 15.0 mph 26.5 mph N/A   Clear
5:36 PM 64.9 °F 37.9 °F 37% 30.02 in 10.0 mi NW 17.3 mph - N/A   Mostly Cloudy
5:53 PM 63.0 °F 39.0 °F 41% 30.04 in 10.0 mi NW 17.3 mph 24.2 mph N/A   Overcast
6:53 PM 64.9 °F 33.1 °F 31% 30.04 in 10.0 mi SW 13.8 mph - 0.00 in   Partly Cloudy
7:53 PM 63.0 °F 39.0 °F 41% 30.04 in 10.0 mi North - - N/A   Partly Cloudy
8:53 PM 60.1 °F 41.0 °F 49% 30.06 in 10.0 mi SSW 11.5 mph - N/A   Clear
9:53 PM 57.0 °F 41.0 °F 55% 30.08 in 10.0 mi SSW 8.1 mph - N/A   Clear
11:53 PM 54.0 °F 43.0 °F 66% 30.11 in 10.0 mi North - - N/A   Partly Cloudy